This is the latest recevied weather packets stored in our database for station/object BMCB-37. If no packets are shown the sender has not sent any weather packets the latest 10 day(s).
| Time | Temp. | Humidity | Pressure | Rain* | Wind** | Luminosity | Snow |
|---|---|---|---|---|---|---|---|
| 1777774825 | 12.78° C | 10% | 1014.6 hPa | 0 mm | - | - | - |
| 1777773151 | 12.78° C | 10% | 1015 hPa | 0 mm | - | - | - |
| 1777761021 | 14.44° C | 98% | 1016.3 hPa | 0 mm | - | 0 W/m² | - |
| 1777759824 | 14.44° C | 98% | 1016.4 hPa | 0 mm | - | 0 W/m² | - |
| 1777758021 | 15° C | 97% | 1016.4 hPa | 0 mm | - | 0 W/m² | - |
| 1777755621 | 15° C | 93% | 1016.5 hPa | 0 mm | - | 0 W/m² | - |
| 1777755040 | 15° C | 95% | 1016.4 hPa | 0 mm | - | 0 W/m² | - |
| 1777750221 | 18.33° C | 77% | 1016.4 hPa | 0.51 mm | - | 0 W/m² | - |
| 1777743023 | 22.78° C | 60% | 1016.2 hPa | 0 mm | - | 72 W/m² | - |
| 1777741219 | 23.89° C | 54% | 1016.3 hPa | 0 mm | - | 200 W/m² | - |
| 1777737639 | 23.89° C | 54% | 1017.2 hPa | 0 mm | - | 338 W/m² | - |
| 1777731635 | 23.33° C | 54% | 1018.9 hPa | 0 mm | - | 530 W/m² | - |
| 1777725623 | 21.67° C | 60% | 1020.2 hPa | 0 mm | - | 364 W/m² | - |
| 1777720236 | 21.67° C | 64% | 1020.9 hPa | 0 mm | - | 388 W/m² | - |
| 1777702822 | 13.89° C | 81% | 1022.6 hPa | 0 mm | - | 64 W/m² | - |
| 1777692039 | 10° C | 81% | 1022.6 hPa | 0 mm | - | 0 W/m² | - |
| 1777689638 | 8.89° C | 85% | 1022.7 hPa | 0 mm | - | 0 W/m² | - |
| 1777687832 | 7.78° C | 87% | 1023 hPa | 0 mm | - | 0 W/m² | - |
| 1777678223 | 7.78° C | 85% | 1023.9 hPa | 0 mm | - | 0 W/m² | - |
| 1777677033 | 8.33° C | 84% | 1024.2 hPa | 0 mm | - | 0 W/m² | - |
| 1777672241 | 10° C | 79% | 1024.4 hPa | 0 mm | - | 0 W/m² | - |
| 1777667437 | 11.67° C | 75% | 1024.4 hPa | 0 mm | - | 0 W/m² | - |
| 1777663235 | 15° C | 67% | 1024 hPa | 0 mm | - | 0 W/m² | - |
| 1777662635 | 15.56° C | 64% | 1023.9 hPa | 0 mm | - | 2 W/m² | - |
| 1777662030 | 16.67° C | 60% | 1023.8 hPa | 0 mm | - | 4 W/m² | - |
* Rain latest hour (hover to see other rain measurements)
** Current wind speed in m/s (hover to see current wind gust speed)